CAPE
0 0 0 0 0 0 0 0 0 0 0 0 0 0 0 0 0 0 0 0 0 0 0 0 0 0 0 0 0 0 0 0 0 0 0 0 0 0 0 0 0 0 0 0
0 0 0 0 0 0 0 0 0 0 0 0 0 0 0 0 0 0 0 0 0 0 0 0 0 0 0 0 0 0 0 0 0 0 0 0 0 0 0 0 0 0 0 0
0 0 0 0 0 0 0 0 0 0 0 0 0 0 0 0 0 0 0 0 0 0 0 0 0 0 0 0 0 0 0 0 0 0 0 0 0 0 0 0 0 0 0 0
0 0 0 0 0 0 0 0 0 0 0 0 0 0 0 0 0 0 0 0 0 0 0 0 0 0 0 0 0 0 0 0 0 0 0 0 0 0 0 0 0 0 0 0
0 0 0 0 0 0 0 0 0 0 0 0 0 0 0 0 0 0 0 0 0 0 0 0 0 0 0 0 0 0 0 0 0 0 0 0 0 0 0 0 0 0 0 0
0 0 0 0 0 0 0 0 0 0 0 0 0 0 0 0 0 0 0 0 0 0 0 0 0 0 0 0 0 0 0 0 0 0 0 0 0 0 0 0 0 0 0 0
0 0 0 0 0 0 0 0 0 0 0 0 0 0 0 0 0 0 0 0 0 0 0 0 0 0 0 0 0 0 0 0 0 0 0 0 0 0 0 0 0 0 0 0
0 0 0 0 0 0 0 0 0 0 0 0 0 0 0 0 0 0 0 0 0 0 0 0 0 0 0 0 0 0 0 0 0 0 0 0 0 0 0 0 0 0 0 0
0 0 0 0 0 0 0 0 0 0 0 0 0 0 0 0 0 0 0 0 0 0 0 0 0 0 0 0 0 0 0 0 0 0 0 0 0 0 0 0 0 0 0 0
0 0 0 0 0 0 0 0 0 0 0 0 0 0 0 0 0 0 0 0 0 0 0 0 0 0 0 0 0 0 0 0 0 0 0 0 0 0 0 0 0 0 0 0
0 0 0 0 0 0 0 0 0 0 0 0 0 0 0 0 0 0 0 0 0 0 0 0 0 0 0 0 0 0 0 0 0 0 0 0 0 0 0 0 0 0 0 0
0 0 0 0 0 0 0 0 0 0 0 0 0 0 0 0 0 0 0 0 0 0 0 0 0 0 0 0 0 0 0 0 0 0 0 0 0 0 0 0 0 0 0 0
0 0 0 0 0 0 0 0 0 0 0 0 0 0 0 0 0 0 0 0 0 0 0 0 0 0 0 0 0 0 0 0 0 0 0 0 0 0 0 0 0 0 0 0
0 0 0 0 0 0 0 0 0 0 0 0 0 0 0 0 0 0 0 0 0 0 0 0 0 0 0 0 0 0 0 0 0 0 0 0 0 0 0 0 0 0 0 0
0 0 0 0 0 0 0 0 0 0 0 0 0 0 0 0 0 0 0 0 0 0 0 0 0 0 0 0 0 0 0 0 0 0 0 0 0 0 0 0 0 0 0 0
0 0 0 0 0 0 0 0 0 0 0 0 0 0 0 0 0 0 0 0 0 0 0 0 0 0 0 0 0 0 0 0 0 0 0 0 0 0 0 0 0 0 0 0
0 0 0 0 0 0 0 0 0 0 0 0 0 0 0 0 0 0 0 0 0 0 0 0 0 0 0 0 0 0 0 0 0 0 0 0 0 0 0 0 0 0 0 0
0 0 0 0 0 0 0 0 0 0 0 0 0 0 0 0 0 0 0 0 0 0 0 0 0 0 0 0 0 0 0 0 0 0 0 0 0 0 0 0 0 0 0 0
0 0 0 0 0 0 0 0 0 0 0 0 0 0 0 0 0 0 0 0 0 0 0 0 0 0 0 0 0 0 0 0 0 0 0 0 0 0 0 0 0 0 0 0
0 0 0 0 0 0 0 0 0 0 0 0 0 0 0 0 0 0 0 0 0 0 0 0 0 0 0 0 0 0 0 0 0 0 0 0 0 0 0 0 0 0 0 0
1 0 0 0 0 0 0 0 0 0 0 0 0 0 0 0 0 0 0 0 0 0 0 0 0 0 0 0 0 0 0 0 0 0 0 0 0 0 0 0 0 0 0 0
0 0 0 0 0 0 0 0 0 0 0 0 0 0 0 0 0 0 0 0 0 0 0 0 0 0 0 0 0 0 0 0 0 0 0 0 0 0 0 0 0 0 0 0
0 0 0 0 0 0 0 0 0 0 0 0 0 0 0 0 0 0 0 0 0 0 0 0 0 0 0 0 0 0 0 0 0 0 0 0 0 0 0 0 0 0 0 0
0 0 0 0 0 0 0 0 0 0 0 0 0 0 0 0 0 0 0 0 0 0 0 0 0 0 0 0 0 0 0 0 0 0 0 0 0 0 0 0 0 0 0 0
0 0 0 0 0 0 0 0 0 0 0 0 0 0 0 0 0 0 0 0 0 0 0 0 0 0 0 0 0 0 0 0 0 0 0 0 0 0 0 0 0 0 0 0
0 0 0 0 0 0 0 0 0 0 0 0 0 0 0 0 0 0 0 0 0 0 0 0 0 0 0 0 0 0 0 0 0 0 0 0 0 0 0 0 0 0 0 0
CIN
-0 -0 -0 -0 -0 -0 -0 -0 -0 -0 -0 -0 -0 -0 -0 -0 -0 -0 -0 -0 -0 -0 -0 -0 -0 -0 -0 -0 -0 -0 -0 -0 -0 -0 -0 -0 -0 -0 -0 -0 -0 -0 -0 -0
-0 -0 -0 -0 -0 -0 -0 -0 -0 -0 -0 -0 -0 -0 -0 -0 -0 -0 -0 -0 -0 -0 -0 -0 -0 -0 -0 -0 -0 -0 -0 -0 -0 -0 -0 -0 -0 -0 -0 -0 -0 -0 -0 -0
-0 -0 -0 -0 -0 -0 -0 -0 -0 -0 -0 -0 -0 -0 -0 -0 -0 -0 -0 -0 -0 -0 -0 -0 -0 -0 -0 -0 -0 -0 -0 -0 -0 -0 -0 -0 -0 -0 -0 -0 -0 -0 -0 -0
-0 -0 -0 -0 -0 -0 -0 -0 -0 -0 -0 -0 -0 -0 -0 -0 -0 -0 -0 -0 -0 -0 -0 -0 -0 -0 -0 -0 -0 -0 -0 -0 -0 -0 -0 -0 -0 -0 -0 -0 -0 -0 -0 -0
-0 -0 -0 -0 -0 -0 -0 -0 -0 -0 -0 -0 -0 -0 -0 -0 -0 -0 -0 -0 -0 -0 -0 -0 -0 -0 -0 -0 -0 -0 -0 -0 -0 -0 -0 -0 -0 -0 -0 -0 -0 -0 -0 -0
-0 -0 -0 -0 -0 -0 -0 -0 -0 -0 -0 -0 -0 -0 -0 -0 -0 -0 -0 -0 -0 -0 -0 -0 -0 -0 -0 -0 -0 -0 -0 -0 -0 -0 -0 -0 -0 -0 -0 -0 -0 -0 -0 -0
-0 -0 -0 -0 -0 -0 -0 -0 -0 -0 -0 -0 -0 -0 -0 -0 -0 -0 -0 -0 -0 -0 -0 -0 -0 -0 -0 -0 -0 -0 -0 -0 -0 -0 -0 -0 -0 -0 -0 -0 -0 -0 -0 -0
-0 -0 -0 -0 -0 -0 -0 -0 -0 -0 -0 -0 -0 -0 -0 -0 -0 -0 -0 -0 -0 -0 -0 -0 -0 -0 -0 -0 -0 -0 -0 -0 -0 -0 -0 -0 -0 -0 -0 -0 -0 -0 -0 -0
-0 -0 -0 -0 -0 -0 -0 -0 -0 -0 -0 -0 -0 -0 -0 -0 -0 -0 -0 -0 -0 -0 -0 -0 -0 -0 -0 -0 -0 -0 -0 -0 -0 -0 -0 -0 -0 -0 -0 -0 -0 -0 -0 -0
-0 -0 -0 -0 -0 -0 -0 -0 -0 -0 -0 -0 -0 -0 -0 -0 -0 -0 -0 -0 -0 -0 -0 -0 -0 -0 -0 -0 -0 -0 -0 -0 -0 -0 -0 -0 -0 -0 -0 -0 -0 -0 -0 -0
-0 -0 -0 -0 -0 -0 -0 -0 -0 -0 -0 -0 -0 -0 -0 -0 -0 -0 -0 -0 -0 -0 -0 -0 -0 -0 -0 -0 -0 -0 -0 -0 -0 -0 -0 -0 -0 -0 -0 -0 -0 -0 -0 -0
-0 -0 -0 -0 -0 -0 -0 -0 -0 -0 -0 -0 -0 -0 -0 -0 -0 -0 -0 -0 -0 -0 -0 -0 -0 -0 -0 -0 -0 -0 -0 -0 -0 -0 -0 -0 -0 -0 -0 -0 -0 -0 -0 -0
-0 -0 -0 -0 -0 -0 -0 -0 -0 -0 -0 -0 -0 -0 -0 -0 -0 -0 -0 -0 -0 -0 -0 -0 -0 -0 -0 -0 -0 -0 -0 -0 -0 -0 -0 -0 -0 -0 -0 -0 -0 -0 -0 -0
-0 -0 -0 -0 -0 -0 -0 -0 -0 -0 -0 -0 -0 -0 -0 -0 -0 -0 -0 -0 -0 -0 -0 -0 -0 -0 -0 -0 -0 -0 -0 -0 -0 -0 -0 -0 -0 -0 -0 -0 -0 -0 -0 -0
-0 -0 -0 -0 -0 -0 -0 -0 -0 -0 -0 -0 -0 -0 -0 -0 -0 -0 -0 -0 -0 -0 -0 -0 -0 -0 -0 -0 -0 -0 -0 -0 -0 -0 -0 -0 -0 -0 -0 -0 -0 -0 -0 -0
-0 -0 -0 -0 -0 -0 -0 -0 -0 -0 -0 -0 -0 -0 -0 -0 -0 -0 -0 -0 -0 -0 -0 -0 -0 -0 -0 -0 -0 -0 -0 -0 -0 -0 -0 -0 -0 -0 -0 -0 -0 -0 -0 -0
-0 -0 -0 -0 -0 -0 -0 -0 -0 -0 -0 -0 -0 -0 -0 -0 -0 -0 -0 -0 -0 -0 -0 -0 -0 -0 -0 -0 -0 -0 -0 -0 -0 -0 -0 -0 -0 -0 -0 -0 -0 -0 -0 -0
-0 -0 -0 -0 -0 -0 -0 -0 -0 -0 -0 -0 -0 -0 -0 -0 -0 -0 -0 -0 -0 -0 -0 -0 -0 -0 -0 -0 -0 -0 -0 -0 -0 -0 -0 -0 -0 -0 -0 -0 -0 -0 -0 -0
-0 -0 -0 -0 -0 -0 -0 -0 -0 -0 -0 -0 -0 -0 -0 -0 -0 -0 -0 -0 -0 -0 -0 -0 -0 -0 -0 -0 -0 -0 -0 -0 -0 -0 -0 -0 -0 -0 -0 -0 -0 -0 -0 -0
-0 -0 -0 -0 -0 -0 -0 -0 -0 -0 -0 -0 -0 -0 -0 -0 -0 -0 -0 -0 -0 -0 -0 -0 -0 -0 -0 -0 -0 -0 -0 -0 -0 -0 -0 -0 -0 -0 -0 -0 -0 -0 -0 -0
-0 -0 -0 -0 -0 -0 -0 -0 -0 -0 -0 -0 -0 -0 -0 -0 -0 -0 -0 -0 -0 -0 -0 -0 -0 -0 -0 -0 -0 -0 -0 -0 -0 -0 -0 -0 -0 -0 -0 -0 -0 -0 -0 -0
-0 -0 -0 -0 -0 -0 -0 -0 -0 -0 -0 -0 -0 -0 -0 -0 -0 -0 -0 -0 -0 -0 -0 -0 -0 -0 -0 -0 -0 -0 -0 -0 -0 -0 -0 -0 -0 -0 -0 -0 -0 -0 -0 -0
-0 -0 -0 -0 -0 -0 -0 -0 -0 -0 -0 -0 -0 -0 -0 -0 -0 -0 -0 -0 -0 -0 -0 -0 -0 -0 -0 -0 -0 -0 -0 -0 -0 -0 -0 -0 -0 -0 -0 -0 -0 -0 -0 -0
-0 -0 -0 -0 -0 -0 -0 -0 -0 -0 -0 -0 -0 -0 -0 -0 -0 -0 -0 -0 -0 -0 -0 -0 -0 -0 -0 -0 -0 -0 -0 -0 -0 -0 -0 -0 -0 -0 -0 -0 -0 -0 -0 -0
-0 -0 -0 -0 -0 -0 -0 -0 -0 -0 -0 -0 -0 -0 -0 -0 -0 -0 -0 -0 -0 -0 -0 -0 -0 -0 -0 -0 -0 -0 -0 -0 -0 -0 -0 -0 -0 -0 -0 -0 -0 -0 -0 -0
-0 -0 -0 -0 -0 -0 -0 -0 -0 -0 -0 -0 -0 -0 -0 -0 -0 -0 -0 -0 -0 -0 -0 -0 -0 -0 -0 -0 -0 -0 -0 -0 -0 -0 -0 -0 -0 -0 -0 -0 -0 -0 -0 -0
Wind_Speed
18 20 15 8 11 30 27 28 28 22 22 22 8 19 14 8 8 10 10 9 8 9 6 7 7 6 5 5 4 4 3 2 3 6 9 12 14 15 18 21 23 27 30 33
19 37 26 21 17 28 28 31 31 24 21 23 34 30 24 12 9 9 7 7 6 6 6 6 7 7 7 6 5 4 3 2 3 4 7 13 14 16 17 19 21 25 29 32
19 23 17 18 19 19 24 20 22 27 25 23 35 34 19 21 15 6 4 4 5 5 5 6 8 8 8 8 7 5 4 3 2 5 9 12 14 16 16 17 21 25 28 30
29 20 19 19 22 19 23 23 23 24 27 30 22 34 22 18 20 15 11 8 5 2 2 4 5 7 8 8 6 5 4 3 2 4 7 9 12 15 16 18 20 23 26 28
23 21 19 21 22 14 23 19 20 23 25 29 21 24 22 21 20 20 16 16 11 7 4 3 5 5 5 6 6 5 4 3 2 4 6 7 11 14 15 17 19 22 24 27
23 22 21 21 19 20 13 19 22 23 25 26 19 18 22 18 16 15 15 21 17 11 8 3 1 2 3 3 3 4 3 3 3 4 6 7 10 12 14 16 19 21 23 26
25 25 22 16 19 18 19 20 26 25 16 20 23 20 11 16 19 16 15 17 15 12 9 6 3 2 2 3 3 4 3 2 2 3 5 7 9 11 13 15 17 20 23 26
29 34 23 20 25 24 19 21 23 23 21 23 22 18 18 16 20 20 15 14 11 10 9 6 4 2 1 2 3 2 2 1 0 2 3 6 8 10 12 14 16 19 22 25
29 33 24 22 23 22 23 24 24 28 27 32 26 29 33 29 16 15 12 12 10 9 8 6 5 3 2 1 1 2 1 0 1 2 4 6 7 9 11 13 15 18 20 23
28 33 28 26 24 25 25 20 25 25 31 33 26 28 22 19 17 16 16 13 12 9 7 7 5 4 3 2 1 1 1 1 1 2 3 4 6 9 11 12 14 17 19 22
30 31 30 24 28 26 26 27 26 25 28 31 36 31 20 17 19 17 16 15 12 9 8 8 7 6 6 4 2 1 1 2 1 2 3 4 5 7 9 11 13 15 18 21
29 29 36 33 26 26 28 29 26 30 32 30 34 30 21 19 17 17 17 18 16 13 11 9 9 8 6 5 3 3 3 3 3 2 3 3 4 6 8 9 11 14 16 20
24 33 35 35 33 31 33 30 30 30 32 33 33 31 22 21 23 20 21 21 19 18 15 13 13 12 10 7 7 6 5 5 5 4 3 3 3 4 5 7 10 13 15 18
21 31 37 41 34 26 33 34 32 32 36 36 36 37 32 32 30 26 25 24 22 19 21 19 18 15 12 11 10 9 8 7 6 6 4 4 3 2 4 6 8 11 13 16
25 36 35 34 30 28 29 28 27 32 35 39 37 39 32 31 35 39 37 31 27 29 27 24 22 19 17 15 13 12 10 9 8 7 6 5 2 0 2 4 7 9 12 14
26 36 33 37 34 35 40 36 32 31 32 38 42 47 38 38 40 40 38 35 33 30 29 29 26 22 18 16 13 11 10 9 8 7 6 4 3 1 1 3 5 8 11 13
30 31 35 42 34 37 51 40 36 37 35 36 44 43 39 38 36 36 36 37 38 36 31 29 26 22 19 16 13 12 10 9 8 7 6 4 3 2 0 3 5 6 10 11
25 27 27 34 28 46 35 27 24 29 30 28 34 36 34 33 32 29 29 30 31 29 30 28 25 21 18 14 10 8 7 7 7 6 6 6 5 3 1 2 3 6 9 10
24 25 30 34 36 37 35 27 23 25 32 25 27 29 29 27 27 30 28 23 22 22 21 22 22 19 14 8 5 4 4 4 4 5 6 5 5 4 2 0 2 5 7 9
22 23 28 27 37 40 29 23 18 18 37 25 18 22 24 19 26 24 16 16 15 16 18 18 18 17 13 9 6 4 2 1 1 3 5 5 5 5 3 1 2 4 5 8
30 29 33 31 36 35 27 18 12 30 32 22 21 22 18 16 16 14 13 15 16 17 18 16 16 14 12 10 8 7 5 3 2 1 2 4 4 5 4 3 2 3 4 7
30 30 32 32 36 45 19 17 27 26 23 24 19 15 10 10 13 14 12 14 14 14 15 14 14 14 11 9 7 7 6 5 4 2 1 4 6 5 4 4 3 3 3 5
32 28 31 29 32 25 19 21 20 19 20 17 17 16 14 15 18 18 16 17 17 17 17 16 16 15 14 11 9 9 7 5 3 2 1 4 4 4 4 4 3 1 2 3
33 28 34 32 35 32 30 28 25 24 25 24 21 20 22 23 23 22 21 22 23 22 22 19 18 18 18 14 13 12 8 5 3 2 1 3 5 5 5 3 3 2 2 2
34 29 37 39 38 32 31 31 32 31 29 27 27 26 27 26 27 27 28 28 28 26 25 22 22 22 21 15 14 12 10 7 5 3 2 2 3 6 5 3 3 3 2 2
32 34 36 41 34 33 31 26 25 27 29 30 29 28 27 27 29 28 28 26 26 27 25 23 22 21 19 16 14 13 10 8 6 6 5 4 4 5 5 5 2 2 3 2
Wind_Direction
270 270 191 258 195 233 283 280 286 312 314 320 244 242 248 285 292 256 245 242 254 244 235 215 209 213 215 214 219 231 253 293 337 345 349 350 353 359 1 3 4 5 5 5
274 218 269 280 280 270 280 280 284 308 318 319 296 257 253 264 283 271 260 259 257 282 252 225 213 213 212 214 217 226 244 266 314 342 349 353 358 357 0 4 7 7 6 7
271 277 276 280 283 287 289 298 302 301 312 319 303 290 333 336 343 336 258 282 250 240 232 226 217 220 222 221 218 227 230 245 292 341 351 352 356 357 360 5 5 6 8 8
266 276 281 280 281 286 290 298 302 306 309 308 326 305 326 338 339 347 352 359 347 310 271 225 217 219 220 229 226 225 228 244 285 333 342 348 352 354 360 2 5 7 9 10
271 273 273 279 284 286 292 303 305 308 308 307 318 316 325 331 336 345 359 359 358 349 322 236 218 218 211 208 216 217 221 249 295 323 338 347 351 358 3 5 6 8 10 11
273 280 280 283 289 289 300 302 306 307 307 297 310 312 324 334 341 347 350 351 352 5 10 19 160 178 191 196 205 207 217 257 298 321 340 349 353 358 0 3 6 7 10 11
270 272 280 281 283 289 289 292 297 305 306 303 312 310 302 324 328 338 335 344 351 1 18 27 55 129 163 176 184 189 203 252 295 327 341 350 356 360 2 5 7 8 9 10
259 268 267 272 277 280 276 283 289 300 304 311 313 312 325 333 329 330 331 342 354 359 1 6 25 60 111 151 160 162 184 217 228 332 344 356 1 3 5 8 9 10 11 11
264 266 276 276 278 277 275 278 290 293 300 300 303 304 306 312 319 326 329 332 339 347 2 20 28 29 44 63 133 145 138 22 286 342 353 357 3 5 5 8 10 12 13 13
267 269 274 273 276 276 276 282 283 286 293 296 305 304 312 326 334 338 337 341 345 351 6 12 16 14 14 15 46 84 62 354 346 346 355 359 2 4 6 9 10 12 14 14
260 264 271 273 267 265 272 273 280 285 286 294 298 302 314 314 322 327 340 343 343 345 344 347 352 354 0 360 0 3 65 4 317 313 341 354 357 4 7 9 12 13 15 14
254 267 265 268 278 276 271 271 268 276 284 288 290 292 312 323 333 331 333 337 339 340 335 329 328 331 334 332 320 311 307 308 311 309 315 331 349 2 6 12 14 14 16 15
247 259 263 270 274 275 271 268 271 275 282 278 284 294 311 313 312 315 320 327 327 329 334 329 322 317 314 308 300 299 303 306 308 307 302 311 327 355 15 19 16 16 17 15
256 261 262 264 275 278 272 267 263 265 272 278 274 283 290 296 303 308 313 315 314 315 322 318 315 314 310 304 295 290 292 298 299 288 282 287 300 359 22 23 20 21 20 19
259 265 265 269 273 277 280 280 267 261 264 275 284 284 289 291 294 296 301 303 302 304 307 307 307 305 301 297 290 286 283 288 290 283 273 271 264 352 30 26 30 26 21 22
262 267 270 271 271 273 275 275 274 271 273 278 283 283 289 290 291 292 294 298 298 301 303 304 303 302 297 295 287 278 272 277 277 271 254 253 239 262 47 39 34 32 23 24
260 263 267 268 274 277 274 270 270 275 276 278 281 288 294 292 291 292 293 296 296 298 299 302 303 298 294 288 285 276 280 284 277 271 257 244 223 208 98 36 39 35 23 26
259 259 266 272 276 269 280 290 279 276 281 278 286 291 295 297 301 303 303 303 305 307 308 310 313 312 308 299 284 271 252 254 262 252 220 200 208 208 172 48 39 29 22 25
260 261 268 268 268 281 283 284 285 284 290 283 285 293 295 302 308 305 309 309 312 317 322 326 331 335 342 347 345 335 311 298 271 245 218 208 187 181 175 135 23 20 23 24
258 261 261 271 270 274 289 296 291 295 289 306 289 296 302 306 304 311 325 333 338 342 343 344 351 358 6 16 31 35 38 48 244 203 200 184 174 169 175 139 36 30 30 27
254 258 257 264 272 279 283 303 297 286 297 310 306 304 305 306 313 330 332 332 336 340 344 353 0 5 18 33 46 51 59 103 74 13 169 189 181 166 153 128 73 49 41 31
252 254 259 265 270 274 284 284 281 294 304 308 307 312 318 323 331 326 325 325 331 340 347 351 355 358 8 20 24 18 11 20 18 27 190 181 174 166 154 146 112 96 78 40
260 259 263 261 270 289 270 285 287 301 299 306 311 309 311 311 313 316 311 315 319 324 327 334 335 338 340 347 349 349 356 16 25 36 139 162 171 171 163 160 145 123 100 51
264 262 270 271 274 276 276 279 286 289 291 297 298 301 301 301 302 304 303 303 304 307 310 315 314 317 321 328 327 326 341 353 14 15 141 163 177 179 170 171 162 172 145 77
266 264 267 272 277 284 282 281 280 282 285 288 293 294 295 297 297 300 300 298 299 300 303 304 304 306 310 319 322 324 324 320 315 313 289 219 205 195 187 198 190 182 160 120
267 269 267 273 278 280 283 285 288 285 284 286 288 292 296 297 296 300 300 301 301 300 301 301 302 303 309 314 316 318 314 302 297 296 286 252 232 212 205 198 195 169 150 117